Simultaneous Nadir Overpasses (SNOs) Predictions

Prediction of SNOs between GOES-17 and AQUA Satellite Orbit:

Table of predicted SNOs for the next 14.0 days since TLE Epoch: 1/2/2021
Index Date Time (GOES-17) GOES-17 Lat,Lon AQUA Lat,Lon Distance(km) Time Diff (sec)
1 01/02/2021 22:45:55 0.02,-137.21 -0.12,-137.94 82.21 80
2 01/04/2021 22:36:23 0.02,-137.20 0.48,-134.97 252.61 80
3 01/05/2021 10:57:38 -0.03,-137.20 0.62,-140.13 333.87 80
4 01/07/2021 10:45:27 -0.02,-137.18 -0.04,-137.18 1.68 80
5 01/09/2021 10:33:15 0.00,-137.15 -0.64,-134.21 334.42 80
6 01/09/2021 22:51:59 -0.01,-137.14 -0.50,-139.40 256.99 80
7 01/11/2021 22:42:27 -0.01,-137.10 0.12,-136.44 75.72 80
8 01/13/2021 22:30:15 -0.01,-137.06 0.73,-133.47 407.80 80
9 01/14/2021 10:51:30 0.01,-137.06 0.37,-138.63 179.26 80
